{"data":{"norad_id":58887,"intl_designator":"2024-020M","name":"STARLINK-31321","alt_names":[],"object_type":"PAYLOAD","status":"ACTIVE","operator":null,"country":"US","launch_date":"2024-01-29","launch_site_code":"AFWTR","launch_vehicle":null,"mission":null,"orbit_class":"UNKNOWN","rcs_meters":null,"size_class":null,"mass_kg":null,"dimensions":null,"purposes":["comms"],"wikipedia_slug":null,"has_3d_model":false,"image_url":null,"decayed_at":null,"tle_current":{"epoch":"2026-09-20T21:58:48.122400Z","epoch_age_seconds":116687,"freshness":"FRESH","line1":"1 58887U 24020M   26263.91583475 -.00002141  00000+0 -52292-4 0  9998","line2":"2 58887  53.1574 131.8884 0001634  84.6377 275.4812 15.34375280149174","mean_motion":15.3437528,"eccentricity":0.0001634,"inclination_deg":53.1574,"raan_deg":131.8884,"arg_perigee_deg":84.6377,"mean_anomaly_deg":275.4812,"bstar":-5.2292e-5,"rev_number":14917,"period_min":93.849270042985,"perigee_km":461.65890894212,"apogee_km":463.89451954394,"semimajor_km":6840.913714243,"source":"CELESTRAK","updated_at":"2026-09-21T09:00:33.993997Z"}}}